| time (UTC) | temp F | wind direction | speed MPH | gust MPH | rain 1hr in | rain 24hr in | rain mn in | humidity % | barometer mb |
| 20260506091012 | 57 | 0 | 0.0 | 0.0 | 0.00 | 0.00 | 0.00 | 86 | 1018.0 |
| 20260506090511 | 57 | 0 | 0.0 | 0.0 | 0.00 | 0.00 | 0.00 | 87 | 1017.9 |
| 20260506090029 | 57 | 0 | 0.0 | 0.0 | 0.00 | 0.00 | 0.00 | 87 | 1017.9 |
| 20260506085509 | 57 | 0 | 0.0 | 0.0 | 0.00 | 0.01 | 0.00 | 87 | 1018.0 |
| 20260506085009 | 57 | 0 | 0.0 | 0.0 | 0.00 | 0.01 | 0.00 | 87 | 1017.9 |
| 20260506084535 | 57 | 0 | 0.0 | 0.0 | 0.00 | 0.01 | 0.00 | 86 | 1017.9 |
| 20260506084008 | 57 | 0 | 0.0 | 0.0 | 0.00 | 0.01 | 0.00 | 86 | 1017.9 |
| 20260506083514 | 57 | 0 | 0.0 | 0.0 | 0.00 | 0.01 | 0.00 | 86 | 1017.9 |
| 20260506083033 | 57 | 0 | 0.0 | 0.0 | 0.00 | 0.01 | 0.00 | 86 | 1017.9 |
| 20260506082509 | 57 | 0 | 0.0 | 0.0 | 0.00 | 0.01 | 0.00 | 86 | 1017.9 |
| 20260506082013 | 57 | 0 | 0.0 | 0.0 | 0.00 | 0.01 | 0.00 | 87 | 1017.9 |
| 20260506081530 | 57 | 0 | 0.0 | 0.0 | 0.00 | 0.01 | 0.00 | 87 | 1018.0 |
| 20260506081017 | 57 | 0 | 0.0 | 0.0 | 0.00 | 0.01 | 0.00 | 86 | 1017.9 |
| 20260506080509 | 57 | 0 | 0.0 | 0.0 | 0.00 | 0.01 | 0.00 | 86 | 1017.9 |
| 20260506073512 | 58 | 0 | 0.0 | 0.0 | 0.00 | 0.01 | 0.00 | 84 | 1017.8 |
| 20260506073029 | 58 | 0 | 0.0 | 0.0 | 0.00 | 0.01 | 0.00 | 84 | 1017.7 |
| 20260506072510 | 58 | 0 | 0.0 | 0.0 | 0.00 | 0.01 | 0.00 | 84 | 1017.6 |
| 20260506072019 | 58 | 0 | 0.0 | 0.0 | 0.00 | 0.01 | 0.00 | 83 | 1017.7 |
| 20260506071528 | 58 | 0 | 0.0 | 0.0 | 0.00 | 0.01 | 0.00 | 84 | 1017.6 |
| 20260506071012 | 58 | 0 | 0.0 | 0.0 | 0.00 | 0.01 | 0.00 | 85 | 1017.5 |
| 20260506070510 | 58 | 0 | 0.0 | 0.0 | 0.00 | 0.01 | 0.00 | 85 | 1017.5 |
| 20260506062512 | 58 | 0 | 0.0 | 1.0 | 0.00 | 0.03 | 0.01 | 84 | 1017.1 |
| 20260506062011 | 59 | 0 | 0.0 | 1.0 | 0.00 | 0.03 | 0.01 | 85 | 1017.0 |
| 20260506061529 | 59 | 0 | 0.0 | 1.0 | 0.00 | 0.03 | 0.01 | 84 | 1017.0 |
| 20260506061011 | 59 | 0 | 0.0 | 1.0 | 0.00 | 0.03 | 0.01 | 84 | 1016.8 |
| 20260506060514 | 59 | 0 | 0.0 | 0.0 | 0.00 | 0.03 | 0.01 | 86 | 1016.8 |
| 20260506051012 | 59 | 0 | 0.0 | 0.0 | 0.00 | 0.12 | 0.01 | 82 | 1016.3 |
| 20260506050515 | 59 | 0 | 0.0 | 0.0 | 0.00 | 0.12 | 0.01 | 83 | 1016.1 |
| 20260506045010 | 59 | 0 | 0.0 | 0.0 | 0.00 | 0.17 | 0.01 | 83 | 1016.2 |
| 20260506044527 | 59 | 0 | 0.0 | 0.0 | 0.00 | 0.17 | 0.01 | 83 | 1016.1 |
| 20260506044011 | 59 | 0 | 0.0 | 0.0 | 0.00 | 0.17 | 0.01 | 83 | 1016.1 |
| 20260506043510 | 59 | 0 | 0.0 | 0.0 | 0.00 | 0.17 | 0.01 | 83 | 1016.0 |
| 20260506043030 | 59 | 0 | 0.0 | 0.0 | 0.00 | 0.17 | 0.01 | 83 | 1016.0 |
| 20260506042511 | 59 | 0 | 0.0 | 0.0 | 0.00 | 0.17 | 0.01 | 82 | 1016.0 |
| 20260506042014 | 59 | 0 | 0.0 | 0.0 | 0.00 | 0.17 | 0.01 | 82 | 1015.9 |
| 20260506041528 | 59 | 0 | 0.0 | 0.0 | 0.00 | 0.17 | 0.01 | 82 | 1015.8 |
| 20260506041010 | 59 | 0 | 0.0 | 0.0 | 0.00 | 0.17 | 0.01 | 81 | 1015.8 |
| 20260506040511 | 59 | 0 | 0.0 | 0.0 | 0.00 | 0.17 | 0.01 | 81 | 1015.8 |
| 20260506040037 | 59 | 0 | 0.0 | 0.0 | 0.00 | 0.17 | 0.01 | 82 | 1015.6 |
| 20260506035510 | 59 | 0 | 0.0 | 0.0 | 0.00 | 0.46 | 0.01 | 80 | 1015.6 |
| 20260506035010 | 60 | 0 | 0.0 | 0.0 | 0.00 | 0.46 | 0.01 | 80 | 1015.6 |
| 20260506034529 | 60 | 0 | 0.0 | 0.0 | 0.00 | 0.46 | 0.01 | 80 | 1015.5 |
| 20260506034011 | 60 | 0 | 0.0 | 0.0 | 0.00 | 0.46 | 0.01 | 80 | 1015.5 |
| 20260506033512 | 60 | 0 | 0.0 | 0.0 | 0.00 | 0.46 | 0.01 | 79 | 1015.5 |
| 20260506033033 | 60 | 0 | 0.0 | 0.0 | 0.00 | 0.46 | 0.01 | 80 | 1015.6 |
| 20260506032511 | 60 | 0 | 0.0 | 0.0 | 0.00 | 0.46 | 0.01 | 80 | 1015.5 |
| 20260506032009 | 60 | 0 | 0.0 | 0.0 | 0.00 | 0.46 | 0.01 | 80 | 1015.5 |
| 20260506031530 | 60 | 0 | 0.0 | 0.0 | 0.00 | 0.46 | 0.01 | 79 | 1015.5 |
| 20260506031012 | 60 | 0 | 0.0 | 0.0 | 0.00 | 0.46 | 0.01 | 79 | 1015.4 |
| 20260506030513 | 60 | 0 | 0.0 | 0.0 | 0.00 | 0.46 | 0.01 | 79 | 1015.3 |
| 20260506030029 | 60 | 0 | 0.0 | 0.0 | 0.00 | 0.46 | 0.01 | 79 | 1015.2 |
| 20260506025510 | 60 | 0 | 0.0 | 0.0 | 0.00 | 0.57 | 0.01 | 79 | 1015.1 |
| 20260506025010 | 60 | 0 | 0.0 | 0.0 | 0.00 | 0.57 | 0.01 | 78 | 1015.0 |
| 20260506024530 | 61 | 0 | 0.0 | 0.0 | 0.00 | 0.57 | 0.01 | 79 | 1015.0 |
| 20260506024017 | 61 | 0 | 0.0 | 0.0 | 0.00 | 0.57 | 0.01 | 79 | 1014.8 |
| 20260506023515 | 60 | 0 | 0.0 | 0.0 | 0.00 | 0.57 | 0.01 | 79 | 1014.9 |
| 20260506023030 | 60 | 0 | 0.0 | 0.0 | 0.00 | 0.57 | 0.01 | 78 | 1014.9 |
| 20260506022514 | 60 | 0 | 0.0 | 0.0 | 0.00 | 0.57 | 0.01 | 78 | 1014.9 |
| 20260506022016 | 61 | 0 | 0.0 | 1.0 | 0.00 | 0.57 | 0.01 | 78 | 1014.7 |
| 20260506021534 | 61 | 0 | 0.0 | 1.0 | 0.00 | 0.57 | 0.01 | 77 | 1014.5 |
| 20260506021012 | 61 | 0 | 0.0 | 1.0 | 0.00 | 0.57 | 0.01 | 77 | 1014.4 |
| 20260506020511 | 61 | 0 | 0.0 | 1.0 | 0.00 | 0.57 | 0.01 | 77 | 1014.5 |
| 20260506020033 | 61 | 0 | 0.0 | 1.0 | 0.00 | 0.57 | 0.01 | 76 | 1014.5 |
| 20260506015511 | 61 | 0 | 0.0 | 1.0 | 0.00 | 0.68 | 0.01 | 77 | 1014.4 |
| 20260506015019 | 61 | 0 | 0.0 | 1.0 | 0.00 | 0.68 | 0.01 | 75 | 1014.5 |
| 20260506014528 | 62 | 0 | 0.0 | 3.0 | 0.00 | 0.68 | 0.01 | 76 | 1014.4 |
| 20260506014010 | 62 | 0 | 0.0 | 3.0 | 0.00 | 0.68 | 0.01 | 76 | 1014.4 |
| 20260506013511 | 62 | 0 | 0.0 | 3.0 | 0.00 | 0.68 | 0.01 | 76 | 1014.4 |
| 20260506013027 | 62 | 0 | 0.0 | 0.0 | 0.00 | 0.68 | 0.01 | 75 | 1014.4 |
| 20260506012511 | 62 | 0 | 0.0 | 0.0 | 0.00 | 0.68 | 0.01 | 76 | 1014.5 |
| 20260506012010 | 62 | 0 | 0.0 | 0.0 | 0.00 | 0.68 | 0.01 | 75 | 1014.4 |
| 20260506011531 | 62 | 0 | 0.0 | 0.0 | 0.00 | 0.68 | 0.01 | 74 | 1014.5 |
| 20260506011012 | 62 | 0 | 0.0 | 0.0 | 0.00 | 0.68 | 0.01 | 75 | 1014.4 |
| 20260506010513 | 62 | 0 | 0.0 | 1.0 | 0.00 | 0.68 | 0.01 | 75 | 1014.5 |
| 20260506010044 | 62 | 0 | 0.0 | 1.0 | 0.00 | 0.68 | 0.01 | 74 | 1014.5 |
| 20260506005511 | 62 | 0 | 0.0 | 2.0 | 0.00 | 0.74 | 0.01 | 74 | 1014.5 |
| 20260506005011 | 62 | 0 | 0.0 | 2.0 | 0.00 | 0.74 | 0.01 | 73 | 1014.4 |
| 20260506004530 | 62 | 0 | 0.0 | 2.0 | 0.00 | 0.74 | 0.01 | 72 | 1014.4 |
| 20260506004009 | 62 | 0 | 0.0 | 2.0 | 0.00 | 0.74 | 0.01 | 73 | 1014.3 |
| 20260506003513 | 62 | 0 | 0.0 | 2.0 | 0.00 | 0.74 | 0.01 | 74 | 1014.2 |
| 20260506003032 | 62 | 0 | 0.0 | 0.0 | 0.00 | 0.74 | 0.01 | 74 | 1014.3 |
| 20260506002512 | 62 | 0 | 0.0 | 1.0 | 0.00 | 0.74 | 0.01 | 73 | 1014.3 |
| 20260506002013 | 63 | 0 | 0.0 | 1.0 | 0.00 | 0.74 | 0.01 | 72 | 1014.2 |
| 20260506001527 | 63 | 0 | 0.0 | 1.0 | 0.00 | 0.74 | 0.01 | 74 | 1014.2 |
| 20260506001012 | 63 | 0 | 0.0 | 0.0 | 0.00 | 0.74 | 0.01 | 74 | 1014.2 |
| 20260506000511 | 63 | 0 | 0.0 | 0.0 | 0.00 | 0.74 | 0.01 | 74 | 1014.2 |
| 20260506000029 | 63 | 0 | 0.0 | 0.0 | 0.00 | 0.74 | 0.01 | 73 | 1014.2 |
| 20260505235509 | 62 | 0 | 0.0 | 1.0 | 0.00 | 0.83 | 0.01 | 74 | 1014.1 |
| 20260505235010 | 62 | 0 | 0.0 | 1.0 | 0.00 | 0.83 | 0.01 | 74 | 1014.2 |
| 20260505234541 | 62 | 0 | 0.0 | 1.0 | 0.00 | 0.83 | 0.01 | 74 | 1014.2 |
| 20260505234012 | 62 | 0 | 0.0 | 1.0 | 0.00 | 0.83 | 0.01 | 74 | 1014.2 |
| 20260505233510 | 62 | 0 | 0.0 | 1.0 | 0.00 | 0.83 | 0.01 | 75 | 1014.2 |
| 20260505233035 | 62 | 0 | 0.0 | 3.0 | 0.00 | 0.83 | 0.01 | 73 | 1014.1 |
| 20260505232513 | 62 | 0 | 0.0 | 3.0 | 0.00 | 0.83 | 0.01 | 75 | 1014.1 |
| 20260505232010 | 62 | 0 | 0.0 | 3.0 | 0.00 | 0.83 | 0.01 | 75 | 1014.3 |
| 20260505231533 | 61 | 0 | 0.0 | 1.0 | 0.00 | 0.83 | 0.01 | 75 | 1014.2 |
| 20260505231012 | 61 | 0 | 0.0 | 2.0 | 0.00 | 0.83 | 0.01 | 75 | 1014.2 |
| 20260505230511 | 62 | 0 | 0.0 | 2.0 | 0.00 | 0.83 | 0.01 | 75 | 1014.3 |
| 20260505230029 | 62 | 0 | 0.0 | 1.0 | 0.00 | 0.83 | 0.01 | 76 | 1014.2 |
| 20260505225516 | 62 | 0 | 0.0 | 1.0 | 0.00 | 0.90 | 0.01 | 73 | 1014.3 |
| 20260505225011 | 62 | 0 | 0.0 | 3.0 | 0.00 | 0.90 | 0.01 | 73 | 1014.3 |
| 20260505224533 | 62 | 0 | 0.0 | 3.0 | 0.00 | 0.90 | 0.01 | 75 | 1014.2 |
| 20260505224012 | 61 | 360 | 0.0 | 3.0 | 0.00 | 0.90 | 0.01 | 74 | 1014.3 |
| 20260505223519 | 61 | 0 | 0.0 | 0.0 | 0.00 | 0.90 | 0.01 | 73 | 1014.3 |
| 20260505223028 | 61 | 0 | 0.0 | 1.0 | 0.00 | 0.90 | 0.01 | 73 | 1014.4 |
| 20260505222516 | 61 | 0 | 0.0 | 1.0 | 0.00 | 0.90 | 0.01 | 75 | 1014.4 |
| 20260505222012 | 61 | 0 | 0.0 | 1.0 | 0.00 | 0.90 | 0.01 | 74 | 1014.5 |
| 20260505221530 | 61 | 0 | 0.0 | 1.0 | 0.00 | 0.90 | 0.01 | 74 | 1014.5 |
| 20260505221016 | 61 | 0 | 0.0 | 1.0 | 0.00 | 0.90 | 0.01 | 76 | 1014.4 |
| 20260505220508 | 61 | 0 | 0.0 | 3.0 | 0.00 | 0.90 | 0.01 | 73 | 1014.6 |
| 20260505220029 | 61 | 0 | 0.0 | 4.0 | 0.00 | 0.90 | 0.01 | 76 | 1014.6 |
| 20260505215513 | 61 | 163 | 0.0 | 4.0 | 0.00 | 0.96 | 0.01 | 74 | 1014.6 |
| 20260505215011 | 61 | 0 | 0.0 | 4.0 | 0.00 | 0.96 | 0.01 | 75 | 1014.7 |
| 20260505214555 | 61 | 148 | 0.0 | 4.0 | 0.00 | 0.96 | 0.01 | 74 | 1014.7 |
| 20260505214014 | 61 | 184 | 0.0 | 4.0 | 0.00 | 0.96 | 0.01 | 74 | 1014.7 |
| 20260505213511 | 61 | 0 | 0.0 | 4.0 | 0.00 | 0.96 | 0.01 | 73 | 1014.7 |
| 20260505213028 | 61 | 0 | 0.0 | 2.0 | 0.00 | 0.96 | 0.01 | 74 | 1014.8 |
| 20260505212515 | 61 | 0 | 0.0 | 4.0 | 0.00 | 0.96 | 0.01 | 74 | 1014.8 |
| 20260505212012 | 61 | 0 | 0.0 | 4.0 | 0.00 | 0.96 | 0.01 | 73 | 1014.6 |
| 20260505211532 | 62 | 0 | 0.0 | 3.0 | 0.00 | 0.96 | 0.01 | 74 | 1014.8 |
| 20260505211011 | 62 | 254 | 0.0 | 5.0 | 0.00 | 0.96 | 0.01 | 73 | 1014.7 |
| 20260505210512 | 61 | 0 | 0.0 | 6.0 | 0.00 | 0.96 | 0.01 | 73 | 1014.7 |
| 20260505210028 | 62 | 268 | 0.0 | 6.0 | 0.00 | 0.96 | 0.01 | 74 | 1014.7 |
| 20260505205512 | 61 | 0 | 1.0 | 4.0 | 0.00 | 1.07 | 0.01 | 74 | 1014.5 |
| 20260505205012 | 62 | 0 | 0.0 | 4.0 | 0.00 | 1.07 | 0.01 | 73 | 1014.6 |
| 20260505204528 | 61 | 0 | 1.0 | 4.0 | 0.00 | 1.07 | 0.01 | 74 | 1014.6 |
| 20260505204017 | 62 | 0 | 0.0 | 3.0 | 0.00 | 1.07 | 0.01 | 72 | 1014.7 |
| 20260505203516 | 62 | 264 | 0.0 | 3.0 | 0.00 | 1.07 | 0.01 | 76 | 1014.6 |
| 20260505203036 | 62 | 0 | 0.0 | 3.0 | 0.00 | 1.07 | 0.01 | 75 | 1014.6 |
| 20260505202511 | 61 | 0 | 0.0 | 2.0 | 0.00 | 1.07 | 0.01 | 74 | 1014.6 |
| 20260505202013 | 61 | 0 | 0.0 | 4.0 | 0.00 | 1.07 | 0.01 | 74 | 1014.6 |
| 20260505201531 | 61 | 0 | 0.0 | 4.0 | 0.00 | 1.07 | 0.01 | 74 | 1014.8 |
| 20260505201010 | 61 | 0 | 0.0 | 3.0 | 0.00 | 1.07 | 0.01 | 76 | 1014.7 |
| 20260505200514 | 60 | 259 | 0.0 | 3.0 | 0.00 | 1.07 | 0.01 | 77 | 1014.8 |
| 20260505200029 | 60 | 0 | 0.0 | 3.0 | 0.00 | 1.07 | 0.01 | 76 | 1014.8 |
| 20260505195513 | 60 | 220 | 0.0 | 2.0 | 0.00 | 1.07 | 0.01 | 78 | 1014.8 |
| 20260505195010 | 60 | 0 | 0.0 | 3.0 | 0.00 | 1.07 | 0.01 | 77 | 1014.8 |
| 20260505194528 | 60 | 0 | 0.0 | 4.0 | 0.00 | 1.07 | 0.01 | 76 | 1014.8 |
| 20260505194009 | 60 | 161 | 0.0 | 4.0 | 0.00 | 1.07 | 0.01 | 75 | 1014.8 |
| 20260505193512 | 60 | 200 | 0.0 | 4.0 | 0.00 | 1.07 | 0.01 | 77 | 1014.9 |
| 20260505193031 | 59 | 0 | 0.0 | 3.0 | 0.00 | 1.07 | 0.01 | 78 | 1014.8 |
| 20260505192511 | 59 | 0 | 0.0 | 3.0 | 0.00 | 1.07 | 0.01 | 80 | 1015.0 |
| 20260505192013 | 59 | 0 | 0.0 | 1.0 | 0.00 | 1.07 | 0.01 | 79 | 1014.8 |
| 20260505191527 | 59 | 0 | 0.0 | 4.0 | 0.00 | 1.07 | 0.01 | 80 | 1014.9 |
| 20260505191011 | 59 | 0 | 0.0 | 5.0 | 0.00 | 1.07 | 0.01 | 81 | 1014.8 |
| 20260505190511 | 59 | 172 | 0.0 | 5.0 | 0.00 | 1.07 | 0.01 | 82 | 1014.7 |
| 20260505190028 | 58 | 0 | 0.0 | 3.0 | 0.00 | 1.07 | 0.01 | 81 | 1014.8 |
| 20260505185513 | 58 | 248 | 0.0 | 3.0 | 0.00 | 1.07 | 0.01 | 83 | 1014.9 |
| 20260505185012 | 57 | 0 | 0.0 | 2.0 | 0.00 | 1.07 | 0.01 | 82 | 1014.9 |
| 20260505184528 | 57 | 0 | 0.0 | 1.0 | 0.00 | 1.07 | 0.01 | 82 | 1014.8 |
| 20260505184009 | 58 | 0 | 0.0 | 1.0 | 0.00 | 1.07 | 0.01 | 83 | 1014.9 |
| 20260505183511 | 58 | 0 | 0.0 | 1.0 | 0.00 | 1.07 | 0.01 | 85 | 1014.8 |
| 20260505183030 | 57 | 0 | 0.0 | 1.0 | 0.00 | 1.07 | 0.01 | 84 | 1014.9 |
| 20260505182517 | 57 | 0 | 0.0 | 1.0 | 0.00 | 1.07 | 0.01 | 83 | 1014.7 |
| 20260505182018 | 57 | 0 | 0.0 | 1.0 | 0.00 | 1.07 | 0.01 | 84 | 1014.7 |
| 20260505181528 | 57 | 0 | 0.0 | 3.0 | 0.00 | 1.07 | 0.01 | 84 | 1014.6 |
| 20260505181009 | 57 | 0 | 0.0 | 3.0 | 0.00 | 1.07 | 0.01 | 83 | 1014.6 |
| 20260505180510 | 57 | 0 | 0.0 | 3.0 | 0.00 | 1.07 | 0.01 | 85 | 1014.7 |
| 20260505180051 | 57 | 192 | 0.0 | 2.0 | 0.00 | 1.07 | 0.01 | 85 | 1014.6 |
| 20260505175512 | 57 | 0 | 0.0 | 2.0 | 0.00 | 1.07 | 0.01 | 86 | 1014.6 |
| 20260505175015 | 57 | 241 | 0.0 | 2.0 | 0.00 | 1.07 | 0.01 | 84 | 1014.6 |
| 20260505174548 | 56 | 0 | 0.0 | 3.0 | 0.00 | 1.07 | 0.01 | 85 | 1014.5 |
| 20260505174010 | 56 | 0 | 0.0 | 3.0 | 0.00 | 1.07 | 0.01 | 85 | 1014.5 |
| 20260505173510 | 56 | 0 | 0.0 | 3.0 | 0.00 | 1.07 | 0.01 | 85 | 1014.5 |
| 20260505173034 | 56 | 0 | 0.0 | 3.0 | 0.00 | 1.07 | 0.01 | 87 | 1014.4 |
| 20260505172511 | 56 | 192 | 0.0 | 3.0 | 0.00 | 1.07 | 0.01 | 87 | 1014.5 |
| 20260505172013 | 56 | 0 | 0.0 | 3.0 | 0.00 | 1.07 | 0.01 | 88 | 1014.5 |
| 20260505171529 | 55 | 0 | 0.0 | 3.0 | 0.00 | 1.07 | 0.01 | 87 | 1014.6 |
| 20260505171011 | 55 | 232 | 0.0 | 2.0 | 0.00 | 1.07 | 0.01 | 88 | 1014.6 |
| 20260505170510 | 55 | 0 | 0.0 | 3.0 | 0.00 | 1.07 | 0.01 | 88 | 1014.6 |
| 20260505170029 | 55 | 0 | 1.0 | 4.0 | 0.00 | 1.07 | 0.01 | 89 | 1014.5 |
| 20260505165513 | 55 | 0 | 1.0 | 4.0 | 0.00 | 1.07 | 0.01 | 89 | 1014.6 |
| 20260505165009 | 55 | 200 | 0.0 | 3.0 | 0.00 | 1.07 | 0.01 | 89 | 1014.5 |
| 20260505164530 | 55 | 131 | 0.0 | 2.0 | 0.00 | 1.07 | 0.01 | 90 | 1014.5 |
| 20260505164010 | 54 | 0 | 0.0 | 3.0 | 0.00 | 1.07 | 0.01 | 90 | 1014.4 |
| 20260505163510 | 54 | 0 | 0.0 | 3.0 | 0.00 | 1.07 | 0.01 | 90 | 1014.4 |
| 20260505163028 | 54 | 234 | 0.0 | 3.0 | 0.00 | 1.07 | 0.01 | 91 | 1014.3 |
| 20260505162510 | 54 | 0 | 0.0 | 3.0 | 0.00 | 1.07 | 0.01 | 91 | 1014.3 |
| 20260505162013 | 54 | 0 | 0.0 | 2.0 | 0.00 | 1.07 | 0.01 | 91 | 1014.3 |
| 20260505161529 | 54 | 243 | 0.0 | 3.0 | 0.00 | 1.07 | 0.01 | 92 | 1014.2 |
| 20260505161012 | 53 | 0 | 0.0 | 3.0 | 0.00 | 1.07 | 0.01 | 91 | 1014.2 |
| 20260505160514 | 53 | 0 | 0.0 | 2.0 | 0.00 | 1.07 | 0.01 | 91 | 1014.3 |
| 20260505153030 | 52 | 0 | 0.0 | 2.0 | 0.00 | 1.07 | 0.01 | 94 | 1014.4 |
| 20260505152516 | 52 | 0 | 0.0 | 1.0 | 0.00 | 1.07 | 0.01 | 94 | 1014.3 |
| 20260505152012 | 51 | 0 | 0.0 | 2.0 | 0.00 | 1.07 | 0.01 | 94 | 1014.3 |
| 20260505151531 | 51 | 0 | 0.0 | 2.0 | 0.00 | 1.07 | 0.01 | 94 | 1014.2 |
| 20260505151013 | 51 | 0 | 0.0 | 1.0 | 0.00 | 1.07 | 0.01 | 95 | 1014.3 |
| 20260505150517 | 51 | 0 | 0.0 | 2.0 | 0.00 | 1.07 | 0.01 | 95 | 1014.2 |
| 20260505140510 | 51 | 0 | 0.0 | 1.0 | 0.00 | 1.07 | 0.01 | 96 | 1013.7 |
| 20260505125011 | 51 | 0 | 0.0 | 2.0 | 0.00 | 1.07 | 0.01 | 97 | 1013.4 |
| 20260505124535 | 51 | 0 | 0.0 | 2.0 | 0.00 | 1.07 | 0.01 | 97 | 1013.3 |
| 20260505124010 | 51 | 0 | 0.0 | 1.0 | 0.00 | 1.07 | 0.01 | 97 | 1013.3 |
| 20260505123511 | 51 | 0 | 0.0 | 1.0 | 0.00 | 1.07 | 0.01 | 97 | 1013.2 |
| 20260505123027 | 51 | 257 | 0.0 | 2.0 | 0.00 | 1.07 | 0.01 | 97 | 1013.2 |
| 20260505122510 | 51 | 0 | 0.0 | 2.0 | 0.00 | 1.07 | 0.01 | 97 | 1013.2 |
| 20260505122011 | 51 | 0 | 0.0 | 1.0 | 0.00 | 1.07 | 0.01 | 97 | 1013.2 |
| 20260505121533 | 51 | 0 | 0.0 | 1.0 | 0.00 | 1.07 | 0.01 | 97 | 1013.2 |
| 20260505121010 | 51 | 0 | 0.0 | 1.0 | 0.00 | 1.07 | 0.01 | 97 | 1013.1 |
| 20260505120518 | 51 | 0 | 0.0 | 1.0 | 0.00 | 1.07 | 0.01 | 97 | 1013.1 |
| 20260505120032 | 51 | 0 | 0.0 | 1.0 | 0.00 | 1.07 | 0.01 | 97 | 1013.1 |
| 20260505115510 | 51 | 0 | 0.0 | 1.0 | 0.00 | 1.07 | 0.01 | 97 | 1013.2 |
| 20260505115016 | 51 | 0 | 0.0 | 1.0 | 0.00 | 1.07 | 0.01 | 97 | 1013.3 |
| 20260505114530 | 51 | 0 | 0.0 | 1.0 | 0.00 | 1.07 | 0.01 | 97 | 1013.3 |
| 20260505114012 | 51 | 0 | 0.0 | 0.0 | 0.00 | 1.07 | 0.01 | 97 | 1013.3 |
| 20260505113510 | 51 | 0 | 0.0 | 0.0 | 0.00 | 1.07 | 0.01 | 97 | 1013.4 |
| 20260505113029 | 51 | 0 | 0.0 | 0.0 | 0.00 | 1.07 | 0.01 | 97 | 1013.4 |
| 20260505112509 | 51 | 0 | 0.0 | 0.0 | 0.00 | 1.07 | 0.01 | 97 | 1013.4 |
| 20260505112011 | 51 | 0 | 0.0 | 0.0 | 0.00 | 1.07 | 0.01 | 97 | 1013.4 |
| 20260505111528 | 51 | 0 | 0.0 | 0.0 | 0.00 | 1.07 | 0.01 | 97 | 1013.4 |
| 20260505111010 | 51 | 0 | 0.0 | 0.0 | 0.00 | 1.07 | 0.01 | 97 | 1013.4 |
| 20260505110512 | 51 | 0 | 0.0 | 0.0 | 0.00 | 1.07 | 0.01 | 97 | 1013.3 |
| 20260505102010 | 51 | 0 | 0.0 | 0.0 | 0.00 | 1.07 | 0.01 | 97 | 1013.4 |
| 20260505101534 | 51 | 0 | 0.0 | 0.0 | 0.00 | 1.07 | 0.01 | 97 | 1013.3 |
| 20260505101010 | 51 | 0 | 0.0 | 0.0 | 0.00 | 1.07 | 0.01 | 97 | 1013.3 |
| 20260505100511 | 51 | 0 | 0.0 | 0.0 | 0.00 | 1.07 | 0.01 | 97 | 1013.3 |
| 20260505100028 | 51 | 0 | 0.0 | 0.0 | 0.00 | 1.07 | 0.01 | 97 | 1013.4 |
| 20260505095510 | 51 | 0 | 0.0 | 0.0 | 0.00 | 1.07 | 0.01 | 97 | 1013.4 |
| 20260505095014 | 51 | 0 | 0.0 | 0.0 | 0.00 | 1.07 | 0.01 | 97 | 1013.4 |
| 20260505094527 | 51 | 0 | 0.0 | 0.0 | 0.00 | 1.07 | 0.01 | 97 | 1013.3 |
| 20260505094011 | 51 | 0 | 0.0 | 0.0 | 0.00 | 1.07 | 0.01 | 97 | 1013.4 |
| 20260505093509 | 51 | 0 | 0.0 | 0.0 | 0.00 | 1.07 | 0.01 | 97 | 1013.5 |
| 20260505093035 | 51 | 0 | 0.0 | 0.0 | 0.01 | 1.07 | 0.01 | 97 | 1013.6 |
| 20260505092513 | 51 | 0 | 0.0 | 0.0 | 0.01 | 1.07 | 0.01 | 97 | 1013.7 |
| 20260505092013 | 51 | 0 | 0.0 | 0.0 | 0.01 | 1.07 | 0.01 | 97 | 1013.9 |
| 20260505091530 | 51 | 0 | 0.0 | 0.0 | 0.01 | 1.07 | 0.01 | 97 | 1013.7 |